Location: Newark
(36.0797°N, 3.9744°E)
Time: 05:02:01
(UTC+00:00)

Vanguard 2 - Pass Details

Date: 08 December 2019
Orbit: 553 x 2938 km, 32.9° (Epoch: 19 January)

Event Time Altitude Azimuth Distance (km) Brightness Sun altitude
Exits shadow 05:20:54 17° 271° (W) 5,201 11.1 -16.0°
Maximum altitude 05:36:13 75° 191° (SSW) 2,674 10.2 -13.0°
Drops below altitude 10° 05:49:17 10° 109° (ESE) 4,374 13.0 -10.6°
Sets 05:52:09 0° 108° (ESE) 5,099 14.1 -10.0°
